| time (UTC) | temp F | wind direction | speed MPH | gust MPH | rain 1hr in | rain 24hr in | rain mn in | humidity % | barometer mb |
| 20260904101532 | 49 | 225 | 0.0 | 0.0 | 0.00 | 0.00 | 0.00 | 97 | 1014.2 |
| 20260904100034 | 49 | 225 | 0.0 | 0.0 | 0.00 | 0.00 | 0.00 | 97 | 1014.2 |
| 20260904093034 | 48 | 204 | 0.0 | 1.0 | 0.00 | 0.00 | 0.00 | 97 | 1014.0 |
| 20260904091532 | 48 | 202 | 0.0 | 0.0 | 0.00 | 0.00 | 0.00 | 97 | 1014.0 |
| 20260904090034 | 49 | 202 | 0.0 | 0.0 | 0.00 | 0.00 | 0.00 | 97 | 1013.9 |
| 20260904083033 | 49 | 234 | 0.0 | 1.0 | 0.00 | 0.00 | 0.00 | 96 | 1013.8 |
| 20260904081535 | 49 | 247 | 0.0 | 0.0 | 0.00 | 0.00 | 0.00 | 96 | 1013.7 |
| 20260904074537 | 49 | 247 | 0.0 | 0.0 | 0.00 | 0.00 | 0.00 | 96 | 1013.8 |
| 20260904073033 | 49 | 247 | 0.0 | 0.0 | 0.00 | 0.00 | 0.00 | 96 | 1013.8 |
| 20260904071535 | 49 | 247 | 0.0 | 0.0 | 0.00 | 0.00 | 0.00 | 96 | 1013.8 |
| 20260904070037 | 49 | 247 | 0.0 | 0.0 | 0.00 | 0.00 | 0.00 | 95 | 1013.7 |
| 20260904064535 | 50 | 247 | 0.0 | 0.0 | 0.00 | 0.00 | 0.00 | 95 | 1013.7 |
| 20260904063036 | 50 | 247 | 0.0 | 0.0 | 0.00 | 0.00 | 0.00 | 95 | 1013.6 |
| 20260904061536 | 50 | 247 | 0.0 | 0.0 | 0.00 | 0.00 | 0.00 | 95 | 1013.6 |
| 20260904060032 | 51 | 247 | 0.0 | 0.0 | 0.00 | 0.00 | 0.00 | 94 | 1013.6 |
| 20260904054609 | 51 | 273 | 0.0 | 1.0 | 0.00 | 0.00 | 0.00 | 94 | 1013.6 |
| 20260904051607 | 52 | 315 | 0.0 | 0.0 | 0.00 | 0.00 | 0.00 | 94 | 1013.6 |
| 20260904050109 | 52 | 263 | 0.0 | 0.0 | 0.00 | 0.00 | 0.00 | 93 | 1013.6 |
| 20260904044609 | 52 | 202 | 0.0 | 0.0 | 0.00 | 0.00 | 0.00 | 93 | 1013.7 |
| 20260904043109 | 53 | 202 | 0.0 | 0.0 | 0.00 | 0.00 | 0.00 | 93 | 1013.7 |
| 20260904041536 | 53 | 202 | 0.0 | 0.0 | 0.00 | 0.00 | 0.00 | 92 | 1013.7 |
| 20260904040036 | 53 | 202 | 0.0 | 1.0 | 0.00 | 0.00 | 0.00 | 90 | 1013.6 |
| 20260904031535 | 53 | 292 | 0.0 | 0.0 | 0.00 | 0.00 | 0.00 | 87 | 1013.3 |
| 20260904030111 | 54 | 332 | 0.0 | 0.0 | 0.00 | 0.00 | 0.00 | 86 | 1013.2 |
| 20260904024536 | 55 | 358 | 0.0 | 1.0 | 0.00 | 0.01 | 0.00 | 85 | 1013.1 |
| 20260904023035 | 56 | 337 | 0.0 | 0.0 | 0.00 | 0.03 | 0.00 | 84 | 1013.0 |
| 20260904021535 | 56 | 4 | 0.0 | 2.0 | 0.00 | 0.07 | 0.00 | 83 | 1012.9 |
| 20260904020035 | 57 | 349 | 0.0 | 4.0 | 0.00 | 0.10 | 0.00 | 83 | 1012.8 |
| 20260904014534 | 57 | 353 | 0.0 | 3.0 | 0.00 | 0.14 | 0.00 | 82 | 1012.8 |
| 20260904013036 | 57 | 350 | 0.0 | 2.0 | 0.00 | 0.14 | 0.00 | 80 | 1012.8 |
| 20260904011536 | 59 | 346 | 0.0 | 3.0 | 0.00 | 0.14 | 0.00 | 79 | 1012.8 |
| 20260904010035 | 60 | 360 | 0.0 | 4.0 | 0.00 | 0.14 | 0.00 | 77 | 1012.7 |
| 20260904003145 | 61 | 34 | 1.0 | 6.0 | 0.00 | 0.17 | 0.00 | 76 | 1012.6 |
| 20260904001642 | 62 | 14 | 1.0 | 7.0 | 0.00 | 0.18 | 0.00 | 76 | 1012.6 |
| 20260904000038 | 60 | 18 | 0.0 | 4.0 | 0.00 | 0.19 | 0.00 | 84 | 1012.8 |
| 20260903233036 | 58 | 322 | 0.0 | 3.0 | 0.00 | 0.20 | 0.00 | 82 | 1012.8 |
| 20260903231532 | 59 | 296 | 0.0 | 1.0 | 0.00 | 0.21 | 0.00 | 81 | 1012.8 |
| 20260903230112 | 60 | 331 | 0.0 | 5.0 | 0.00 | 0.22 | 0.00 | 77 | 1012.9 |
| 20260903224535 | 61 | 341 | 0.0 | 4.0 | 0.00 | 0.22 | 0.00 | 75 | 1012.8 |
| 20260903223034 | 62 | 7 | 0.0 | 4.0 | 0.00 | 0.22 | 0.00 | 73 | 1012.7 |
| 20260903220033 | 66 | 296 | 0.0 | 4.0 | 0.00 | 0.23 | 0.00 | 67 | 1012.5 |
| 20260903214607 | 68 | 353 | 0.0 | 6.0 | 0.00 | 0.23 | 0.00 | 64 | 1012.4 |
| 20260903210032 | 69 | 321 | 0.0 | 4.0 | 0.00 | 0.26 | 0.00 | 66 | 1012.6 |
| 20260903203035 | 69 | 312 | 0.0 | 4.0 | 0.00 | 0.27 | 0.00 | 71 | 1012.8 |
| 20260903201644 | 67 | 271 | 0.0 | 1.0 | 0.00 | 0.28 | 0.00 | 76 | 1013.0 |
| 20260903200036 | 65 | 323 | 0.0 | 1.0 | 0.00 | 0.28 | 0.00 | 76 | 1013.2 |
| 20260903194536 | 65 | 336 | 0.0 | 2.0 | 0.00 | 0.28 | 0.00 | 77 | 1013.4 |
| 20260903193036 | 65 | 354 | 0.0 | 2.0 | 0.00 | 0.30 | 0.00 | 79 | 1013.6 |
| 20260903184534 | 59 | 31 | 0.0 | 5.0 | 0.00 | 0.31 | 0.00 | 88 | 1014.2 |
| 20260903181538 | 58 | 28 | 0.0 | 2.0 | 0.00 | 0.31 | 0.00 | 91 | 1014.3 |
| 20260903174533 | 59 | 25 | 0.0 | 3.0 | 0.00 | 0.31 | 0.00 | 99 | 1014.3 |
| 20260903173036 | 56 | 322 | 0.0 | 3.0 | 0.00 | 0.31 | 0.00 | 100 | 1014.5 |
| 20260903171533 | 53 | 84 | 0.0 | 2.0 | 0.00 | 0.31 | 0.00 | 100 | 1014.5 |
| 20260903170035 | 52 | 90 | 0.0 | 1.0 | 0.00 | 0.31 | 0.00 | 100 | 1014.6 |
| 20260903163109 | 52 | 150 | 0.0 | 2.0 | 0.00 | 0.31 | 0.00 | 100 | 1014.5 |
| 20260903160055 | 50 | 252 | 0.0 | 1.0 | 0.00 | 0.31 | 0.00 | 100 | 1014.6 |
| 20260903154535 | 50 | 236 | 0.0 | 3.0 | 0.00 | 0.31 | 0.00 | 100 | 1014.5 |
| 20260903153127 | 49 | 189 | 0.0 | 0.0 | 0.00 | 0.31 | 0.00 | 100 | 1014.6 |
| 20260903151542 | 49 | 147 | 0.0 | 3.0 | 0.00 | 0.31 | 0.00 | 100 | 1014.6 |
| 20260903150043 | 49 | 210 | 0.0 | 3.0 | 0.00 | 0.31 | 0.00 | 100 | 1014.5 |
| 20260903143042 | 47 | 119 | 0.0 | 1.0 | 0.00 | 0.31 | 0.00 | 99 | 1014.3 |
| 20260903140041 | 46 | 202 | 0.0 | 0.0 | 0.00 | 0.31 | 0.00 | 99 | 1014.0 |
| 20260903134541 | 46 | 202 | 0.0 | 0.0 | 0.00 | 0.31 | 0.00 | 99 | 1013.9 |
| 20260903133117 | 46 | 203 | 0.0 | 2.0 | 0.00 | 0.31 | 0.00 | 99 | 1013.9 |
| 20260903131535 | 46 | 225 | 0.0 | 0.0 | 0.00 | 0.31 | 0.00 | 99 | 1013.7 |
| 20260903130035 | 45 | 225 | 0.0 | 0.0 | 0.00 | 0.31 | 0.00 | 99 | 1013.6 |
| 20260903124640 | 46 | 225 | 0.0 | 1.0 | 0.00 | 0.31 | 0.00 | 99 | 1013.6 |
| 20260903121534 | 46 | 157 | 0.0 | 0.0 | 0.00 | 0.31 | 0.00 | 99 | 1013.7 |
| 20260903120109 | 47 | 157 | 0.0 | 0.0 | 0.00 | 0.31 | 0.00 | 99 | 1013.8 |
| 20260903114533 | 47 | 157 | 0.0 | 0.0 | 0.00 | 0.31 | 0.00 | 99 | 1013.8 |
| 20260903113035 | 47 | 160 | 0.0 | 1.0 | 0.00 | 0.31 | 0.00 | 99 | 1013.7 |
| 20260903111535 | 47 | 202 | 0.0 | 0.0 | 0.00 | 0.31 | 0.00 | 99 | 1013.6 |
| 20260903104610 | 48 | 202 | 0.0 | 2.0 | 0.00 | 0.31 | 0.00 | 99 | 1013.4 |